Location: ?ejeti?ky
(50.4060°N, 14.9016°E)
Time: 21:54:54
(UTC+00:00)

STARLINK-1364 - Pass Details

Date: 05 October 2020
Orbit: 548 x 551 km, 53.0° (Epoch: 23 October)

Event Time Altitude Azimuth Distance (km) Brightness Sun altitude
Exits shadow 01:28:40 17° 70° (ENE) 1,428 6.3 -33.5°
Drops below altitude 10° 01:29:43 10° 73° (ENE) 1,829 7.0 -33.4°
Sets 01:31:58 0° 76° (ENE) 2,724 8.0 -33.1°
